QPF
0.02 0.05 0.05 0.03 0.03 0.03 0.02 0.02 0.01 0.01 0.02 0.01 0.01 0.01 0.02 0.03 0.03 0.02 0.02 0.01 0.02 0.02 0.02 0.02 0.02 0.02 0.03 0.04 0.05 0.04 0.02 0.01 0.02 0.02 0.02 0.03 0.05 0.07 0.06 0.05 0.05 0.06 0.07
0.02 0.05 0.09 0.07 0.05 0.03 0.03 0.02 0.02 0.02 0.02 0.02 0.02 0.02 0.02 0.03 0.02 0.02 0.03 0.02 0.01 0.02 0.03 0.03 0.04 0.04 0.03 0.03 0.04 0.05 0.05 0.04 0.03 0.03 0.03 0.02 0.02 0.03 0.03 0.04 0.06 0.08 0.11
0.01 0.05 0.09 0.11 0.12 0.05 0.02 0.02 0.02 0.02 0.03 0.03 0.04 0.04 0.04 0.04 0.06 0.05 0.04 0.04 0.04 0.04 0.05 0.04 0.04 0.04 0.04 0.03 0.03 0.04 0.05 0.06 0.04 0.04 0.04 0.03 0.02 0.01 0.02 0.04 0.07 0.11 0.15
0.02 0.07 0.09 0.10 0.04 0.02 0.02 0.02 0.02 0.02 0.03 0.04 0.04 0.04 0.04 0.04 0.06 0.07 0.06 0.06 0.07 0.07 0.06 0.05 0.04 0.04 0.06 0.04 0.02 0.03 0.05 0.06 0.04 0.04 0.04 0.04 0.05 0.04 0.01 0.02 0.04 0.07 0.10
0.03 0.04 0.04 0.04 0.02 0.01 0.01 0.01 0.01 0.02 0.03 0.04 0.03 0.04 0.06 0.06 0.06 0.07 0.06 0.06 0.08 0.08 0.07 0.06 0.05 0.06 0.06 0.06 0.05 0.06 0.07 0.06 0.04 0.04 0.05 0.06 0.06 0.06 0.05 0.03 0.05 0.06 0.06
0.04 0.04 0.02 0.02 0.01 0.01 0.01 0.02 0.02 0.04 0.06 0.06 0.07 0.07 0.07 0.05 0.05 0.06 0.07 0.06 0.07 0.08 0.06 0.04 0.06 0.06 0.06 0.07 0.07 0.06 0.07 0.05 0.04 0.03 0.05 0.07 0.07 0.07 0.07 0.04 0.04 0.04 0.03
0.03 0.02 0.02 0.02 0.02 0.02 0.01 0.03 0.04 0.05 0.07 0.07 0.08 0.09 0.10 0.07 0.07 0.08 0.08 0.07 0.06 0.06 0.05 0.06 0.08 0.06 0.05 0.06 0.07 0.07 0.07 0.06 0.05 0.05 0.06 0.07 0.06 0.07 0.08 0.07 0.05 0.05 0.04
0.02 0.02 0.03 0.03 0.02 0.02 0.04 0.07 0.05 0.07 0.07 0.08 0.07 0.08 0.08 0.07 0.07 0.07 0.07 0.08 0.08 0.06 0.06 0.06 0.06 0.06 0.06 0.07 0.10 0.09 0.09 0.10 0.09 0.08 0.08 0.07 0.07 0.09 0.10 0.09 0.09 0.07 0.05
0.02 0.02 0.03 0.03 0.02 0.03 0.05 0.04 0.05 0.06 0.06 0.08 0.08 0.09 0.09 0.07 0.07 0.07 0.08 0.12 0.12 0.12 0.10 0.09 0.07 0.07 0.08 0.10 0.14 0.13 0.13 0.12 0.10 0.09 0.09 0.09 0.09 0.10 0.11 0.11 0.11 0.09 0.07
0.01 0.02 0.03 0.05 0.05 0.06 0.07 0.04 0.04 0.04 0.05 0.06 0.06 0.07 0.08 0.07 0.06 0.08 0.09 0.10 0.10 0.13 0.13 0.15 0.14 0.13 0.11 0.13 0.15 0.13 0.12 0.12 0.11 0.11 0.11 0.11 0.10 0.11 0.11 0.10 0.11 0.12 0.13
0.01 0.01 0.03 0.09 0.09 0.06 0.05 0.05 0.04 0.04 0.04 0.05 0.06 0.07 0.07 0.08 0.10 0.11 0.10 0.08 0.09 0.12 0.15 0.18 0.18 0.16 0.14 0.15 0.14 0.13 0.13 0.13 0.15 0.13 0.10 0.08 0.11 0.15 0.15 0.14 0.13 0.12 0.13
0.01 0.01 0.04 0.11 0.06 0.06 0.09 0.07 0.06 0.07 0.06 0.06 0.07 0.08 0.10 0.10 0.09 0.10 0.11 0.13 0.14 0.15 0.15 0.16 0.15 0.16 0.16 0.16 0.15 0.16 0.16 0.17 0.14 0.12 0.10 0.08 0.12 0.14 0.11 0.11 0.11 0.09 0.08
0.01 0.01 0.04 0.07 0.05 0.05 0.08 0.09 0.09 0.11 0.12 0.10 0.08 0.08 0.08 0.07 0.08 0.10 0.10 0.12 0.14 0.15 0.18 0.18 0.16 0.15 0.13 0.12 0.11 0.12 0.11 0.09 0.09 0.11 0.09 0.07 0.07 0.06 0.06 0.08 0.08 0.06 0.06
0.02 0.02 0.05 0.08 0.03 0.03 0.03 0.05 0.06 0.10 0.16 0.14 0.08 0.07 0.06 0.06 0.10 0.13 0.13 0.11 0.11 0.12 0.17 0.20 0.24 0.21 0.13 0.12 0.10 0.09 0.08 0.08 0.08 0.08 0.06 0.05 0.05 0.05 0.05 0.05 0.04 0.04 0.06
0.03 0.04 0.03 0.05 0.04 0.03 0.03 0.04 0.05 0.09 0.10 0.10 0.10 0.09 0.09 0.10 0.12 0.12 0.11 0.10 0.11 0.12 0.12 0.13 0.15 0.14 0.11 0.09 0.09 0.10 0.08 0.07 0.07 0.07 0.05 0.05 0.04 0.05 0.05 0.05 0.05 0.06 0.07
0.02 0.02 0.02 0.03 0.03 0.03 0.02 0.03 0.04 0.07 0.10 0.11 0.10 0.12 0.13 0.14 0.15 0.13 0.12 0.13 0.11 0.11 0.11 0.12 0.11 0.10 0.09 0.11 0.12 0.11 0.11 0.11 0.13 0.12 0.10 0.07 0.06 0.06 0.06 0.05 0.06 0.07 0.07
0.02 0.03 0.03 0.04 0.05 0.04 0.02 0.02 0.04 0.06 0.08 0.12 0.15 0.16 0.13 0.14 0.16 0.17 0.18 0.14 0.12 0.13 0.12 0.10 0.09 0.09 0.09 0.10 0.09 0.10 0.11 0.12 0.14 0.13 0.13 0.13 0.12 0.11 0.09 0.07 0.07 0.06 0.06
0.05 0.07 0.07 0.06 0.06 0.05 0.03 0.03 0.07 0.14 0.14 0.20 0.23 0.20 0.19 0.19 0.19 0.19 0.15 0.11 0.10 0.11 0.09 0.07 0.07 0.07 0.07 0.07 0.07 0.09 0.09 0.09 0.09 0.09 0.07 0.06 0.07 0.08 0.08 0.06 0.05 0.04 0.04
0.05 0.06 0.05 0.04 0.04 0.04 0.03 0.04 0.05 0.08 0.12 0.18 0.20 0.17 0.14 0.15 0.17 0.16 0.12 0.11 0.10 0.09 0.09 0.07 0.06 0.05 0.05 0.05 0.08 0.09 0.07 0.07 0.08 0.07 0.05 0.04 0.03 0.04 0.04 0.03 0.02 0.03 0.02
0.06 0.06 0.05 0.06 0.08 0.08 0.05 0.05 0.05 0.06 0.07 0.08 0.08 0.08 0.09 0.09 0.09 0.09 0.08 0.08 0.07 0.07 0.08 0.08 0.07 0.06 0.05 0.07 0.09 0.09 0.07 0.08 0.08 0.08 0.08 0.06 0.04 0.04 0.02 0.02 0.02 0.02 0.01
0.03 0.04 0.06 0.05 0.05 0.06 0.06 0.05 0.05 0.06 0.06 0.05 0.04 0.05 0.06 0.06 0.05 0.05 0.05 0.05 0.03 0.03 0.04 0.05 0.06 0.07 0.07 0.08 0.08 0.07 0.07 0.07 0.06 0.05 0.04 0.04 0.03 0.03 0.03 0.03 0.02 0.03 0.03
0.03 0.04 0.05 0.06 0.06 0.07 0.08 0.06 0.05 0.04 0.03 0.03 0.03 0.03 0.04 0.04 0.03 0.03 0.02 0.02 0.01 0.02 0.02 0.02 0.02 0.04 0.06 0.07 0.09 0.09 0.08 0.07 0.05 0.04 0.03 0.03 0.04 0.03 0.03 0.02 0.02 0.03 0.03
0.05 0.05 0.06 0.06 0.07 0.09 0.11 0.10 0.06 0.04 0.03 0.03 0.02 0.02 0.02 0.02 0.02 0.02 0.01 0.01 0.02 0.02 0.02 0.02 0.01 0.02 0.03 0.04 0.04 0.05 0.07 0.07 0.05 0.05 0.05 0.04 0.03 0.02 0.01 0.01 0.01 0.02 0.01
0.05 0.06 0.05 0.04 0.04 0.12 0.19 0.15 0.09 0.05 0.03 0.02 0.02 0.01 0.01 0.01 0.01 0.01 0.01 0.01 0.01 0.02 0.02 0.02 0.01 0.01 0.02 0.02 0.02 0.02 0.03 0.05 0.05 0.05 0.04 0.02 0.01 0.00 0.00 0.00 0.00 0.00 0.01
0.06 0.06 0.04 0.03 0.03 0.05 0.07 0.06 0.05 0.04 0.02 0.01 0.01 0.01 0.01 0.00 0.00 0.01 0.01 0.01 0.01 0.02 0.03 0.03 0.02 0.02 0.02 0.02 0.01 0.01 0.01 0.01 0.01 0.01 0.01 0.00 0.00 0.00 0.00 0.00 0.00 0.00 0.00
0.04 0.04 0.04 0.03 0.03 0.03 0.03 0.03 0.02 0.02 0.02 0.02 0.02 0.01 0.01 0.00 0.00 0.00 0.01 0.01 0.01 0.01 0.02 0.03 0.03 0.03 0.03 0.02 0.01 0.01 0.01 0.01 0.01 0.00 0.00 0.00 0.00 0.00 0.00 0.00 0.00 0.00 0.00
MSLP
1012.66 1013.03 1013.40 1013.71 1013.95 1014.11 1014.21 1014.29 1014.39 1014.55 1014.77 1015.04 1015.34 1015.64 1015.87 1016.01 1016.03 1015.94 1015.77 1015.57 1015.38 1015.24 1015.19 1015.26 1015.43 1015.68 1015.99 1016.32 1016.65 1016.95 1017.21 1017.44 1017.62 1017.76 1017.85 1017.88 1017.86 1017.77 1017.62 1017.44 1017.24 1017.07 1016.95
1012.82 1013.36 1013.84 1014.22 1014.45 1014.55 1014.56 1014.54 1014.55 1014.64 1014.84 1015.12 1015.46 1015.79 1016.06 1016.22 1016.23 1016.11 1015.88 1015.61 1015.34 1015.14 1015.03 1015.05 1015.18 1015.40 1015.67 1015.97 1016.26 1016.53 1016.78 1017.00 1017.19 1017.36 1017.50 1017.60 1017.63 1017.59 1017.48 1017.31 1017.10 1016.89 1016.72
1013.04 1013.73 1014.33 1014.76 1014.99 1015.04 1014.96 1014.84 1014.75 1014.77 1014.92 1015.19 1015.54 1015.89 1016.19 1016.36 1016.38 1016.24 1015.99 1015.68 1015.37 1015.12 1014.98 1014.95 1015.03 1015.19 1015.40 1015.62 1015.83 1016.03 1016.21 1016.38 1016.56 1016.75 1016.94 1017.10 1017.22 1017.28 1017.25 1017.14 1016.97 1016.77 1016.58
1013.33 1014.13 1014.82 1015.29 1015.52 1015.53 1015.37 1015.16 1014.98 1014.91 1015.00 1015.24 1015.58 1015.94 1016.25 1016.44 1016.47 1016.34 1016.09 1015.78 1015.46 1015.20 1015.02 1014.96 1014.98 1015.07 1015.19 1015.30 1015.39 1015.47 1015.54 1015.64 1015.77 1015.95 1016.16 1016.40 1016.62 1016.79 1016.88 1016.88 1016.79 1016.65 1016.48
1013.70 1014.56 1015.30 1015.80 1016.02 1015.99 1015.78 1015.48 1015.22 1015.08 1015.11 1015.30 1015.61 1015.96 1016.28 1016.48 1016.53 1016.43 1016.21 1015.92 1015.61 1015.36 1015.18 1015.08 1015.05 1015.06 1015.07 1015.05 1015.00 1014.92 1014.86 1014.83 1014.88 1015.02 1015.24 1015.53 1015.84 1016.12 1016.34 1016.47 1016.51 1016.45 1016.34
1014.13 1015.00 1015.75 1016.26 1016.48 1016.43 1016.17 1015.82 1015.50 1015.30 1015.27 1015.41 1015.69 1016.02 1016.33 1016.54 1016.62 1016.55 1016.36 1016.11 1015.84 1015.61 1015.43 1015.32 1015.24 1015.16 1015.06 1014.90 1014.70 1014.46 1014.24 1014.08 1014.02 1014.09 1014.28 1014.58 1014.95 1015.33 1015.67 1015.93 1016.09 1016.14 1016.11
1014.57 1015.42 1016.17 1016.67 1016.89 1016.83 1016.56 1016.19 1015.83 1015.59 1015.52 1015.62 1015.86 1016.16 1016.46 1016.67 1016.77 1016.73 1016.58 1016.37 1016.15 1015.95 1015.79 1015.66 1015.54 1015.39 1015.19 1014.91 1014.56 1014.17 1013.80 1013.49 1013.31 1013.28 1013.41 1013.69 1014.08 1014.51 1014.93 1015.30 1015.57 1015.73 1015.80
1014.98 1015.79 1016.52 1017.02 1017.25 1017.21 1016.96 1016.60 1016.24 1015.99 1015.90 1015.97 1016.18 1016.45 1016.73 1016.93 1017.03 1017.01 1016.90 1016.73 1016.55 1016.37 1016.23 1016.09 1015.95 1015.75 1015.47 1015.09 1014.63 1014.12 1013.61 1013.17 1012.87 1012.73 1012.78 1013.00 1013.36 1013.80 1014.26 1014.68 1015.03 1015.28 1015.44
1015.30 1016.08 1016.78 1017.30 1017.55 1017.55 1017.35 1017.05 1016.73 1016.51 1016.43 1016.49 1016.67 1016.92 1017.16 1017.35 1017.44 1017.43 1017.34 1017.19 1017.03 1016.88 1016.75 1016.62 1016.45 1016.23 1015.90 1015.47 1014.94 1014.34 1013.75 1013.22 1012.81 1012.57 1012.52 1012.66 1012.95 1013.34 1013.78 1014.22 1014.60 1014.91 1015.14
1015.50 1016.26 1016.96 1017.50 1017.80 1017.87 1017.75 1017.53 1017.29 1017.13 1017.08 1017.15 1017.32 1017.55 1017.76 1017.92 1017.99 1017.97 1017.88 1017.74 1017.60 1017.46 1017.33 1017.21 1017.05 1016.81 1016.48 1016.03 1015.49 1014.87 1014.24 1013.65 1013.18 1012.86 1012.72 1012.76 1012.95 1013.26 1013.64 1014.04 1014.41 1014.74 1015.00
1015.57 1016.33 1017.05 1017.62 1017.98 1018.13 1018.12 1018.01 1017.88 1017.80 1017.82 1017.92 1018.10 1018.31 1018.49 1018.62 1018.66 1018.62 1018.51 1018.37 1018.22 1018.09 1017.97 1017.86 1017.71 1017.49 1017.19 1016.77 1016.26 1015.67 1015.06 1014.47 1013.97 1013.61 1013.40 1013.35 1013.44 1013.65 1013.93 1014.25 1014.57 1014.87 1015.13
1015.55 1016.33 1017.06 1017.66 1018.09 1018.33 1018.44 1018.46 1018.45 1018.48 1018.58 1018.73 1018.92 1019.12 1019.28 1019.38 1019.39 1019.32 1019.19 1019.04 1018.89 1018.76 1018.65 1018.55 1018.43 1018.25 1017.99 1017.64 1017.20 1016.68 1016.13 1015.59 1015.12 1014.74 1014.49 1014.36 1014.36 1014.46 1014.64 1014.86 1015.10 1015.34 1015.56
1015.48 1016.26 1017.00 1017.63 1018.12 1018.46 1018.68 1018.83 1018.95 1019.10 1019.28 1019.49 1019.72 1019.92 1020.06 1020.13 1020.12 1020.03 1019.89 1019.73 1019.58 1019.46 1019.36 1019.28 1019.19 1019.06 1018.87 1018.59 1018.24 1017.82 1017.36 1016.90 1016.48 1016.12 1015.86 1015.69 1015.61 1015.62 1015.69 1015.80 1015.95 1016.12 1016.29
1015.37 1016.15 1016.89 1017.54 1018.07 1018.48 1018.81 1019.08 1019.33 1019.60 1019.87 1020.15 1020.40 1020.62 1020.76 1020.82 1020.79 1020.70 1020.56 1020.41 1020.27 1020.17 1020.09 1020.04 1019.98 1019.90 1019.77 1019.58 1019.31 1018.99 1018.63 1018.27 1017.91 1017.60 1017.35 1017.16 1017.03 1016.97 1016.95 1016.97 1017.03 1017.12 1017.23
1015.25 1016.01 1016.72 1017.37 1017.92 1018.40 1018.82 1019.21 1019.58 1019.95 1020.31 1020.65 1020.95 1021.18 1021.34 1021.40 1021.38 1021.30 1021.19 1021.07 1020.96 1020.89 1020.85 1020.83 1020.81 1020.77 1020.69 1020.56 1020.37 1020.13 1019.86 1019.57 1019.29 1019.03 1018.81 1018.62 1018.47 1018.36 1018.27 1018.23 1018.21 1018.22 1018.27
1015.10 1015.82 1016.50 1017.12 1017.70 1018.23 1018.72 1019.21 1019.69 1020.15 1020.60 1021.00 1021.34 1021.61 1021.78 1021.87 1021.88 1021.83 1021.76 1021.69 1021.64 1021.62 1021.62 1021.64 1021.65 1021.64 1021.59 1021.50 1021.36 1021.18 1020.97 1020.74 1020.52 1020.30 1020.11 1019.94 1019.78 1019.65 1019.53 1019.43 1019.36 1019.32 1019.31
1014.90 1015.57 1016.21 1016.82 1017.41 1017.98 1018.56 1019.13 1019.70 1020.25 1020.77 1021.23 1021.61 1021.91 1022.12 1022.24 1022.29 1022.30 1022.30 1022.30 1022.32 1022.36 1022.41 1022.46 1022.50 1022.51 1022.48 1022.39 1022.27 1022.11 1021.92 1021.73 1021.54 1021.36 1021.20 1021.04 1020.90 1020.76 1020.63 1020.51 1020.41 1020.33 1020.28
1014.64 1015.28 1015.89 1016.50 1017.11 1017.73 1018.37 1019.02 1019.67 1020.30 1020.88 1021.39 1021.82 1022.15 1022.39 1022.56 1022.67 1022.75 1022.82 1022.90 1022.99 1023.10 1023.21 1023.30 1023.36 1023.37 1023.33 1023.23 1023.09 1022.92 1022.73 1022.55 1022.37 1022.21 1022.06 1021.93 1021.80 1021.68 1021.55 1021.43 1021.32 1021.23 1021.15
1014.34 1014.96 1015.58 1016.20 1016.85 1017.53 1018.24 1018.96 1019.69 1020.38 1021.01 1021.56 1022.02 1022.39 1022.67 1022.88 1023.05 1023.19 1023.34 1023.50 1023.67 1023.84 1024.00 1024.12 1024.19 1024.19 1024.13 1024.01 1023.84 1023.65 1023.44 1023.24 1023.06 1022.90 1022.77 1022.66 1022.55 1022.45 1022.34 1022.24 1022.13 1022.03 1021.94
1014.03 1014.68 1015.33 1016.00 1016.70 1017.44 1018.21 1019.00 1019.79 1020.53 1021.21 1021.79 1022.28 1022.67 1022.98 1023.24 1023.46 1023.66 1023.88 1024.10 1024.34 1024.56 1024.75 1024.89 1024.97 1024.96 1024.88 1024.73 1024.53 1024.30 1024.07 1023.86 1023.68 1023.53 1023.41 1023.31 1023.23 1023.15 1023.07 1022.99 1022.89 1022.80 1022.71
1013.78 1014.49 1015.20 1015.92 1016.69 1017.49 1018.33 1019.18 1020.01 1020.79 1021.49 1022.10 1022.61 1023.03 1023.37 1023.65 1023.91 1024.17 1024.43 1024.70 1024.98 1025.23 1025.45 1025.60 1025.67 1025.65 1025.55 1025.38 1025.16 1024.91 1024.67 1024.46 1024.28 1024.14 1024.04 1023.97 1023.91 1023.86 1023.81 1023.74 1023.67 1023.59 1023.50
1013.67 1014.45 1015.22 1016.01 1016.84 1017.69 1018.58 1019.47 1020.33 1021.13 1021.85 1022.48 1023.00 1023.44 1023.80 1024.11 1024.40 1024.69 1024.98 1025.28 1025.57 1025.84 1026.05 1026.20 1026.26 1026.23 1026.12 1025.94 1025.72 1025.49 1025.26 1025.06 1024.90 1024.79 1024.72 1024.67 1024.65 1024.63 1024.60 1024.55 1024.49 1024.41 1024.33
1013.73 1014.57 1015.41 1016.25 1017.12 1018.01 1018.92 1019.82 1020.69 1021.51 1022.24 1022.88 1023.42 1023.87 1024.25 1024.59 1024.90 1025.21 1025.51 1025.81 1026.10 1026.35 1026.55 1026.68 1026.73 1026.70 1026.59 1026.42 1026.22 1026.01 1025.82 1025.66 1025.55 1025.47 1025.44 1025.44 1025.44 1025.45 1025.44 1025.41 1025.35 1025.28 1025.19
1013.96 1014.84 1015.71 1016.58 1017.46 1018.36 1019.27 1020.17 1021.04 1021.85 1022.58 1023.23 1023.79 1024.26 1024.67 1025.03 1025.36 1025.68 1025.98 1026.27 1026.54 1026.77 1026.95 1027.05 1027.09 1027.05 1026.95 1026.81 1026.65 1026.49 1026.35 1026.25 1026.20 1026.18 1026.20 1026.23 1026.27 1026.29 1026.30 1026.28 1026.23 1026.15 1026.05
1014.31 1015.20 1016.07 1016.93 1017.79 1018.67 1019.55 1020.43 1021.28 1022.08 1022.81 1023.47 1024.06 1024.56 1025.00 1025.40 1025.75 1026.07 1026.38 1026.65 1026.89 1027.09 1027.23 1027.31 1027.33 1027.30 1027.22 1027.11 1027.00 1026.90 1026.84 1026.81 1026.82 1026.87 1026.93 1027.01 1027.07 1027.12 1027.13 1027.11 1027.06 1026.97 1026.86
1014.70 1015.56 1016.39 1017.21 1018.03 1018.86 1019.70 1020.54 1021.36 1022.15 1022.88 1023.56 1024.18 1024.72 1025.21 1025.64 1026.02 1026.36 1026.67 1026.93 1027.15 1027.32 1027.43 1027.49 1027.50 1027.47 1027.41 1027.35 1027.29 1027.26 1027.27 1027.31 1027.38 1027.49 1027.60 1027.71 1027.79 1027.85 1027.87 1027.85 1027.78 1027.69 1027.57
Thickness
5822 5821 5817 5813 5808 5803 5798 5795 5790 5786 5782 5778 5773 5769 5766 5765 5765 5764 5763 5762 5761 5760 5758 5756 5755 5754 5752 5751 5749 5747 5745 5744 5745 5741 5740 5743 5746 5746 5747 5747 5745 5744 5742
5818 5819 5816 5813 5809 5805 5801 5797 5792 5788 5784 5780 5777 5773 5769 5767 5766 5765 5764 5763 5761 5760 5758 5757 5755 5754 5752 5750 5749 5748 5744 5744 5744 5739 5733 5731 5735 5742 5748 5747 5746 5745 5744
5822 5820 5817 5814 5810 5806 5803 5800 5794 5790 5786 5783 5778 5773 5769 5766 5764 5763 5763 5763 5762 5760 5759 5757 5756 5754 5753 5750 5749 5748 5745 5741 5743 5742 5736 5728 5725 5732 5740 5743 5745 5744 5743
5826 5823 5820 5815 5813 5810 5807 5802 5797 5792 5788 5784 5778 5772 5767 5763 5764 5764 5763 5763 5762 5760 5759 5757 5756 5754 5753 5751 5750 5749 5747 5743 5740 5741 5741 5739 5735 5729 5729 5736 5740 5742 5741
5830 5827 5824 5821 5818 5813 5808 5803 5798 5793 5789 5785 5781 5775 5770 5768 5767 5765 5763 5762 5762 5760 5759 5757 5755 5754 5753 5752 5750 5749 5747 5745 5742 5740 5739 5737 5736 5734 5728 5726 5732 5735 5738
5834 5829 5826 5821 5816 5813 5808 5802 5797 5793 5790 5787 5783 5777 5773 5769 5766 5764 5762 5761 5760 5759 5758 5757 5755 5754 5753 5752 5750 5749 5747 5745 5743 5741 5739 5736 5733 5731 5729 5726 5727 5728 5733
5833 5828 5823 5817 5814 5811 5808 5803 5797 5793 5791 5787 5783 5780 5776 5772 5768 5765 5762 5760 5758 5757 5757 5756 5755 5753 5752 5752 5750 5748 5747 5745 5743 5741 5740 5739 5737 5735 5732 5728 5726 5725 5728
5833 5829 5825 5819 5815 5813 5809 5804 5798 5793 5790 5787 5783 5781 5778 5774 5771 5768 5764 5761 5760 5759 5758 5756 5754 5753 5752 5751 5749 5748 5746 5745 5743 5742 5740 5738 5737 5736 5733 5730 5725 5721 5721
5832 5829 5825 5820 5817 5814 5810 5806 5800 5795 5791 5787 5784 5780 5778 5775 5772 5769 5766 5763 5761 5760 5758 5756 5754 5753 5751 5750 5748 5746 5745 5744 5742 5741 5739 5737 5736 5735 5733 5731 5728 5721 5715
5828 5826 5823 5821 5819 5816 5812 5807 5801 5796 5792 5788 5785 5781 5778 5775 5772 5769 5766 5763 5761 5759 5757 5754 5753 5752 5751 5749 5747 5745 5743 5742 5741 5739 5737 5735 5734 5733 5731 5729 5727 5724 5718
5822 5821 5820 5818 5815 5811 5807 5802 5798 5794 5791 5787 5784 5780 5777 5774 5771 5768 5765 5763 5760 5757 5755 5753 5752 5750 5748 5746 5744 5741 5740 5738 5737 5736 5734 5732 5731 5729 5728 5726 5724 5721 5717
5820 5819 5816 5813 5810 5804 5801 5799 5796 5792 5789 5786 5782 5778 5775 5772 5768 5765 5763 5761 5758 5755 5753 5751 5749 5747 5745 5743 5740 5737 5736 5735 5733 5732 5731 5729 5728 5725 5723 5721 5719 5716 5714
5812 5811 5810 5807 5804 5801 5799 5796 5793 5790 5787 5783 5778 5775 5771 5768 5765 5763 5760 5758 5755 5752 5750 5747 5745 5743 5740 5738 5737 5735 5733 5732 5730 5728 5726 5725 5723 5720 5718 5716 5713 5711 5708
5805 5802 5800 5799 5799 5798 5795 5792 5789 5787 5784 5779 5775 5771 5768 5765 5762 5759 5757 5753 5751 5748 5745 5743 5741 5739 5736 5734 5733 5731 5729 5728 5726 5724 5722 5720 5718 5716 5713 5711 5708 5705 5701
5799 5797 5795 5794 5794 5793 5790 5788 5785 5782 5779 5775 5770 5767 5764 5761 5758 5755 5752 5749 5746 5743 5741 5738 5736 5734 5732 5730 5728 5727 5725 5722 5720 5718 5716 5714 5712 5710 5708 5705 5701 5699 5694
5793 5793 5793 5791 5790 5788 5785 5782 5779 5776 5774 5770 5765 5762 5758 5755 5752 5748 5746 5742 5739 5736 5735 5732 5730 5728 5726 5725 5723 5721 5718 5716 5713 5709 5707 5706 5703 5701 5699 5697 5695 5692 5687
5789 5788 5788 5787 5785 5783 5781 5777 5774 5772 5768 5763 5759 5756 5752 5749 5745 5742 5739 5735 5732 5730 5727 5724 5722 5720 5719 5718 5716 5715 5712 5709 5705 5702 5699 5697 5694 5692 5689 5687 5685 5682 5679
5785 5784 5783 5782 5781 5779 5776 5773 5769 5765 5761 5756 5753 5750 5747 5743 5739 5735 5731 5729 5726 5723 5720 5716 5714 5713 5711 5710 5709 5707 5704 5700 5697 5694 5691 5688 5684 5682 5680 5677 5673 5670 5668
5784 5782 5780 5778 5775 5771 5769 5766 5761 5758 5754 5750 5747 5744 5741 5737 5732 5728 5724 5722 5719 5716 5712 5709 5707 5705 5703 5702 5702 5699 5696 5691 5688 5685 5682 5679 5676 5673 5671 5668 5663 5659 5656
5780 5778 5775 5771 5767 5764 5762 5757 5753 5750 5747 5744 5741 5738 5734 5731 5726 5721 5718 5716 5713 5709 5705 5702 5699 5698 5696 5695 5693 5691 5687 5682 5678 5674 5671 5669 5666 5663 5660 5657 5653 5648 5644
5774 5773 5768 5763 5760 5758 5756 5750 5746 5743 5741 5739 5736 5732 5728 5724 5720 5716 5712 5709 5706 5702 5697 5694 5691 5689 5688 5686 5684 5682 5678 5674 5669 5664 5660 5657 5655 5652 5649 5646 5643 5639 5635
5767 5765 5760 5755 5753 5752 5749 5743 5738 5737 5735 5732 5729 5725 5721 5718 5714 5709 5705 5702 5698 5694 5689 5686 5683 5680 5679 5677 5675 5672 5669 5665 5661 5655 5650 5647 5645 5642 5639 5636 5633 5630 5626
5759 5757 5753 5748 5745 5744 5742 5736 5731 5730 5727 5724 5720 5716 5713 5709 5706 5702 5699 5695 5691 5687 5682 5679 5675 5671 5669 5667 5665 5663 5660 5656 5651 5646 5642 5639 5635 5632 5629 5625 5622 5619 5614
5751 5748 5745 5740 5736 5735 5734 5730 5726 5723 5720 5715 5711 5708 5703 5699 5696 5694 5691 5688 5684 5680 5676 5671 5667 5663 5661 5658 5656 5653 5650 5646 5642 5637 5632 5629 5625 5622 5618 5615 5611 5607 5603
5742 5740 5737 5733 5730 5728 5725 5723 5720 5717 5712 5707 5702 5698 5694 5690 5685 5682 5679 5677 5675 5674 5670 5665 5662 5658 5653 5650 5649 5645 5641 5637 5632 5627 5623 5618 5614 5609 5606 5602 5599 5595 5592
5735 5732 5729 5726 5723 5721 5718 5716 5714 5710 5706 5700 5694 5690 5685 5681 5677 5674 5670 5668 5667 5665 5663 5660 5657 5652 5649 5644 5641 5637 5633 5629 5624 5618 5611 5606 5602 5598 5594 5591 5587 5584 5580